When you browse on this site, cookies collect data to enhance your experience and personalize the content and advertising you see.
Visit our Privacy Policy to learn more. By continuing to use the site, you agree to this use of cookies and data.
  • In Hungary
  • List of Countries
  • For 7 days
  • Water Temperature
  • Satellite Maps
  • Weather Map
  • News
  • Weather Widgets
  • user-avatar
    Login

    Hourly Weather Ypres

    Today, 21 January, Monday

    Time Temperature Precipitation Wind Pressure Humidity
    00:00 -3°C° 0 mm 2 mps 764 mmHg 61%
    01:00 -1°C° 0 mm 1 mps 764 mmHg 61%
    02:00 -1°C° 0 mm 1 mps 764 mmHg 61%
    03:00 -2°C° 0 mm 0 mps 764 mmHg 60%
    04:00 -2°C° 0 mm 0 mps 764 mmHg 60%
    05:00 -2°C° 0 mm 0 mps 764 mmHg 59%
    06:00 -2°C° 0 mm 0 mps 764 mmHg 59%
    07:00 -2°C° 0 mm 0 mps 764 mmHg 57%
    08:00 0°C° 0 mm 1 mps 764 mmHg 55%
    09:00 0°C° 0 mm 1 mps 764 mmHg 53%
    10:00 +2°C° 0 mm 1 mps 764 mmHg 50%
    11:00 +3°C° 0 mm 1 mps 764 mmHg 48%
    12:00 +4°C° 0 mm 1 mps 764 mmHg 45%
    13:00 +4°C° 0 mm 1 mps 763 mmHg 47%
    14:00 +3°C° 0 mm 2 mps 763 mmHg 49%
    15:00 +3°C° 0 mm 2 mps 762 mmHg 51%
    16:00 +1°C° 0 mm 2 mps 762 mmHg 52%
    17:00 -1°C° 0 mm 2 mps 761 mmHg 53%
    18:00 -2°C° 0 mm 2 mps 761 mmHg 55%
    19:00 -2°C° 0 mm 3 mps 760 mmHg 56%
    20:00 -2°C° 0 mm 3 mps 760 mmHg 57%
    21:00 -4°C° 0 mm 3 mps 760 mmHg 58%
    22:00 -3°C° 0 mm 4 mps 759 mmHg 59%
    23:00 -3°C° 0 mm 4 mps 758 mmHg 60%

    Tomorrow, 22 January, Tuesday

    Time Temperature Precipitation Wind Pressure Humidity
    00:00 -4°C° 0 mm 5 mps 757 mmHg 60%
    01:00 -4°C° 0 mm 5 mps 756 mmHg 62%
    02:00 -4°C° 0 mm 6 mps 754 mmHg 63%
    03:00 -3°C° 0 mm 6 mps 753 mmHg 64%
    04:00 -3°C° 0.2 mm 7 mps 752 mmHg 69%
    05:00 -2°C° 0.2 mm 7 mps 751 mmHg 74%
    06:00 -2°C° 0.2 mm 8 mps 750 mmHg 78%
    07:00 -2°C° 0.7 mm 6 mps 750 mmHg 82%
    08:00 0°C° 0.7 mm 5 mps 750 mmHg 85%
    09:00 0°C° 0.7 mm 4 mps 749 mmHg 88%
    10:00 +1°C° 0 mm 4 mps 749 mmHg 85%
    11:00 +2°C° 0 mm 3 mps 749 mmHg 81%
    12:00 +3°C° 0 mm 3 mps 749 mmHg 77%
    13:00 +2°C° 0 mm 3 mps 748 mmHg 78%
    14:00 +3°C° 0 mm 2 mps 748 mmHg 79%
    15:00 +3°C° 0 mm 2 mps 747 mmHg 80%
    16:00 +2°C° 0 mm 2 mps 747 mmHg 82%
    17:00 +1°C° 0 mm 2 mps 747 mmHg 84%
    18:00 -1°C° 0 mm 2 mps 747 mmHg 87%
    19:00 -1°C° 0 mm 2 mps 747 mmHg 87%
    20:00 -1°C° 0 mm 2 mps 747 mmHg 88%
    21:00 +1°C° 0 mm 1 mps 746 mmHg 89%
    22:00 -2°C° 0 mm 2 mps 746 mmHg 89%
    23:00 -2°C° 0 mm 2 mps 746 mmHg 90%

    Day after tomorrow, 23 January, Wednesday

    Time Temperature Precipitation Wind Pressure Humidity
    00:00 -2°C° 0 mm 2 mps 746 mmHg 90%
    01:00 -2°C° 0 mm 2 mps 746 mmHg 91%
    02:00 -2°C° 0 mm 2 mps 746 mmHg 91%
    03:00 -2°C° 0 mm 2 mps 746 mmHg 91%
    04:00 -2°C° 0 mm 2 mps 746 mmHg 91%
    05:00 0°C° 0 mm 1 mps 746 mmHg 91%
    06:00 0°C° 0 mm 1 mps 747 mmHg 91%
    07:00 0°C° 0 mm 1 mps 747 mmHg 90%
    08:00 0°C° 0 mm 1 mps 748 mmHg 88%
    09:00 +1°C° 0 mm 1 mps 749 mmHg 87%
    10:00 +2°C° 0 mm 1 mps 749 mmHg 83%
    11:00 +3°C° 0 mm 1 mps 750 mmHg 79%
    12:00 +3°C° 0 mm 2 mps 750 mmHg 75%
    13:00 +3°C° 0 mm 2 mps 750 mmHg 76%
    14:00 +3°C° 0 mm 2 mps 750 mmHg 77%
    15:00 +3°C° 0 mm 2 mps 751 mmHg 78%
    16:00 +2°C° 0 mm 2 mps 751 mmHg 80%
    17:00 +1°C° 0 mm 2 mps 752 mmHg 81%
    18:00 +1°C° 0 mm 2 mps 752 mmHg 83%
    19:00 +1°C° 0 mm 2 mps 753 mmHg 82%
    20:00 -1°C° 0 mm 2 mps 753 mmHg 82%
    21:00 -1°C° 0 mm 2 mps 754 mmHg 82%
    22:00 -1°C° 0 mm 2 mps 754 mmHg 82%
    23:00 -1°C° 0 mm 2 mps 755 mmHg 81%

    24 January, Thursday

    Time Temperature Precipitation Wind Pressure Humidity
    00:00 -1°C° 0 mm 2 mps 755 mmHg 81%
    01:00 -1°C° 0 mm 2 mps 756 mmHg 81%
    02:00 -1°C° 0 mm 2 mps 756 mmHg 81%
    03:00 -1°C° 0 mm 2 mps 756 mmHg 81%
    04:00 -1°C° 0 mm 2 mps 757 mmHg 81%
    05:00 -1°C° 0 mm 2 mps 757 mmHg 81%
    06:00 +1°C° 0 mm 1 mps 758 mmHg 81%
    07:00 +2°C° 0 mm 1 mps 758 mmHg 80%
    08:00 +2°C° 0 mm 1 mps 759 mmHg 80%
    09:00 +2°C° 0 mm 0 mps 759 mmHg 79%
    10:00 +4°C° 0 mm 1 mps 760 mmHg 76%
    11:00 +5°C° 0 mm 1 mps 760 mmHg 73%
    12:00 +5°C° 0 mm 1 mps 760 mmHg 69%
    13:00 +5°C° 0 mm 1 mps 760 mmHg 72%
    14:00 +5°C° 0 mm 1 mps 760 mmHg 74%
    15:00 +5°C° 0 mm 1 mps 760 mmHg 76%
    16:00 +4°C° 0 mm 1 mps 760 mmHg 80%
    17:00 +2°C° 0 mm 2 mps 761 mmHg 83%
    18:00 +1°C° 0 mm 2 mps 761 mmHg 86%
    19:00 +1°C° 0 mm 2 mps 761 mmHg 87%
    20:00 +1°C° 0 mm 2 mps 761 mmHg 88%
    21:00 +1°C° 0 mm 2 mps 761 mmHg 89%
    22:00 0°C° 0 mm 3 mps 761 mmHg 87%
    23:00 0°C° 0 mm 3 mps 761 mmHg 85%

    25 January, Friday

    Time Temperature Precipitation Wind Pressure Humidity
    00:00 -1°C° 0 mm 4 mps 761 mmHg 83%
    01:00 0°C° 0.1 mm 4 mps 760 mmHg 82%
    02:00 0°C° 0.1 mm 4 mps 760 mmHg 82%
    03:00 0°C° 0.1 mm 5 mps 759 mmHg 81%
    04:00 0°C° 0.4 mm 5 mps 759 mmHg 84%
    05:00 -1°C° 0.4 mm 6 mps 759 mmHg 86%
    06:00 -1°C° 0.4 mm 6 mps 759 mmHg 88%
    07:00 +1°C° 0.2 mm 5 mps 759 mmHg 90%
    08:00 +1°C° 0.2 mm 5 mps 759 mmHg 93%
    09:00 +3°C° 0.2 mm 4 mps 759 mmHg 95%
    10:00 +4°C° 0 mm 4 mps 759 mmHg 95%
    11:00 +4°C° 0 mm 4 mps 759 mmHg 95%
    12:00 +5°C° 0 mm 3 mps 759 mmHg 95%
    13:00 +7°C° 0 mm 3 mps 758 mmHg 94%
    14:00 +7°C° 0 mm 3 mps 758 mmHg 94%
    15:00 +7°C° 0 mm 3 mps 758 mmHg 93%
    16:00 +6°C° 0 mm 4 mps 758 mmHg 93%
    17:00 +6°C° 0 mm 4 mps 758 mmHg 93%
    18:00 +6°C° 0 mm 4 mps 758 mmHg 93%
    19:00 +6°C° 0 mm 4 mps 758 mmHg 93%
    20:00 +5°C° 0 mm 4 mps 758 mmHg 94%
    21:00 +5°C° 0 mm 4 mps 757 mmHg 94%
    22:00 +5°C° 0 mm 4 mps 757 mmHg 93%
    23:00 +5°C° 0 mm 4 mps 757 mmHg 93%

    26 January, Saturday

    Time Temperature Precipitation Wind Pressure Humidity
    00:00 +5°C° 0 mm 4 mps 757 mmHg 92%
    01:00 +5°C° 0.1 mm 4 mps 756 mmHg 93%
    02:00 +5°C° 0.1 mm 4 mps 756 mmHg 94%
    03:00 +5°C° 0.1 mm 4 mps 755 mmHg 95%
    04:00 +6°C° 0.3 mm 4 mps 755 mmHg 95%
    05:00 +6°C° 0.3 mm 4 mps 754 mmHg 96%
    06:00 +7°C° 0.3 mm 3 mps 753 mmHg 96%
    07:00 +7°C° 0.5 mm 4 mps 753 mmHg 95%
    08:00 +7°C° 0.5 mm 5 mps 752 mmHg 94%
    09:00 +7°C° 0.5 mm 6 mps 752 mmHg 93%
    10:00 +7°C° 0.1 mm 6 mps 751 mmHg 91%
    11:00 +6°C° 0.1 mm 7 mps 750 mmHg 89%
    12:00 +6°C° 0.1 mm 7 mps 749 mmHg 87%
    13:00 +6°C° 0.2 mm 7 mps 748 mmHg 85%
    14:00 +6°C° 0.2 mm 7 mps 747 mmHg 83%
    15:00 +7°C° 0.2 mm 6 mps 745 mmHg 80%
    16:00 +5°C° 0.8 mm 7 mps 744 mmHg 83%
    17:00 +5°C° 0.8 mm 7 mps 743 mmHg 86%
    18:00 +5°C° 0.8 mm 7 mps 742 mmHg 90%
    19:00 +4°C° 0.2 mm 6 mps 741 mmHg 89%
    20:00 +4°C° 0.2 mm 6 mps 740 mmHg 88%
    21:00 +5°C° 0.2 mm 5 mps 738 mmHg 88%
    22:00 +5°C° 0.5 mm 5 mps 737 mmHg 87%
    23:00 +5°C° 0.5 mm 4 mps 736 mmHg 87%
    Show more